Probability
0 0 1 0 0 0 0 0 0 0 0 0 0 1 0 0 0 0 0 0 0 0 0 0 0 0 0 0 0 0 0 0 0 0 1 2 2 1 0 1 3 4 5
0 0 1 1 0 0 0 0 0 0 0 0 0 1 0 0 0 0 0 0 0 0 0 0 0 0 0 0 0 0 0 0 0 0 0 1 1 0 1 2 3 3 4
0 0 1 1 0 0 0 0 0 0 0 0 0 0 0 0 0 0 0 0 0 0 0 0 0 0 0 0 0 0 0 0 0 0 0 0 0 0 1 2 3 3 3
0 0 0 0 0 0 0 0 0 0 0 0 0 0 0 0 0 0 0 0 0 0 0 0 0 0 0 0 0 0 0 0 0 0 0 0 1 1 1 2 3 3 3
0 0 0 0 0 0 0 0 0 0 0 0 0 0 0 0 0 0 0 0 0 0 0 0 0 0 0 0 0 0 0 0 0 1 1 1 2 2 1 1 1 2 2
0 0 0 0 0 0 0 0 0 0 1 1 0 0 0 0 0 0 0 0 0 0 0 0 0 0 0 0 0 0 0 0 1 2 2 3 3 3 2 2 1 1 1
0 0 0 0 0 0 0 0 0 0 1 1 1 0 0 0 0 0 0 0 0 0 0 0 0 0 0 0 0 0 0 0 1 2 3 3 3 3 4 4 3 1 0
0 0 0 0 0 0 0 0 0 0 1 1 1 0 0 0 0 0 0 0 0 0 0 0 0 0 0 0 0 0 0 0 0 1 3 3 3 4 5 6 5 3 1
0 0 0 0 0 0 0 0 0 0 0 0 0 0 0 0 0 0 0 0 0 0 0 0 0 0 0 0 0 0 0 0 0 1 2 3 3 4 5 6 5 4 3
0 0 0 0 0 0 0 0 0 0 0 0 0 0 0 0 0 0 0 0 0 0 0 0 0 0 0 0 0 0 0 0 0 1 2 3 3 3 4 4 5 4 3
0 0 0 0 0 0 0 0 0 0 0 0 0 0 0 0 0 0 0 0 0 0 0 0 0 0 0 0 0 0 0 0 1 1 2 3 3 3 3 3 4 3 3
0 1 1 1 1 1 1 0 0 0 0 0 0 0 0 0 0 0 0 0 0 0 0 0 0 0 0 0 0 0 0 0 0 1 2 3 3 3 3 3 3 3 3
1 1 2 2 2 2 2 1 0 0 0 0 0 0 0 0 0 0 0 0 0 0 0 0 0 0 0 0 0 0 0 0 0 1 2 3 3 3 3 3 2 2 2
0 1 2 3 3 3 3 1 1 0 0 0 0 0 0 0 0 0 0 0 0 0 0 0 0 0 0 0 0 0 0 0 0 0 1 1 2 2 2 1 1 1 1
0 0 1 1 2 3 2 2 2 1 0 0 0 0 0 0 0 0 0 0 0 0 0 0 0 0 0 0 0 0 0 0 0 0 0 0 1 1 1 0 0 0 0
0 0 0 1 1 1 1 2 2 2 1 0 0 0 0 0 0 0 0 0 0 0 0 0 0 0 0 0 0 0 0 0 0 0 0 0 0 0 0 0 0 0 0
0 0 0 0 0 0 0 1 1 1 1 0 0 0 0 0 0 0 0 0 0 0 0 0 0 0 0 0 0 0 0 0 0 0 0 0 0 0 0 0 0 0 0
1 0 0 0 0 0 0 0 1 1 1 0 0 0 0 0 0 0 0 0 0 0 0 0 0 0 0 0 0 0 0 0 0 0 0 0 0 0 0 0 0 0 0
3 1 0 0 0 0 0 1 2 2 1 0 0 0 0 0 0 0 0 0 0 0 0 0 0 0 0 0 0 0 0 0 0 0 0 0 0 0 0 0 0 0 0
3 1 1 1 0 0 1 1 2 2 1 0 0 0 0 0 0 0 0 0 0 0 0 0 0 0 0 0 0 0 0 0 0 0 0 0 0 1 1 1 1 1 1
2 1 2 2 1 1 2 2 1 1 0 0 0 0 0 0 0 0 0 0 0 0 0 0 0 0 0 0 0 0 0 0 0 0 0 0 0 1 2 2 2 2 2
1 1 2 2 2 2 3 2 1 0 0 0 0 0 0 0 0 0 0 0 0 0 0 0 0 0 0 0 0 0 0 0 0 0 0 0 0 1 1 1 1 2 3
0 1 2 1 1 2 3 2 2 1 1 0 0 0 0 0 0 0 0 0 0 0 0 0 0 0 0 0 0 0 0 0 0 0 0 0 0 0 0 0 0 1 2
1 2 3 2 1 1 2 3 3 4 3 1 1 1 0 0 0 0 0 0 0 0 0 0 0 0 0 0 0 0 0 0 0 0 0 0 0 0 0 0 0 0 1
2 3 5 4 2 2 4 4 5 5 4 3 2 2 1 0 0 0 0 0 0 0 0 0 0 0 0 0 0 0 0 0 0 0 0 0 0 0 0 0 0 0 0
3 4 6 5 3 4 6 7 7 5 4 3 3 3 2 1 0 0 0 0 0 0 0 0 0 0 0 0 0 0 0 0 0 0 0 0 0 0 0 0 0 0 0
Wind_Speed
6 8 9 9 9 9 10 10 10 10 10 10 11 11 11 10 11 11 11 11 11 11 11 11 11 11 10 10 10 10 9 8 7 7 8 8 8 8 7 8 7 5 7
8 9 10 9 10 10 10 10 10 10 10 10 10 10 10 11 11 11 11 11 11 10 10 10 11 11 11 10 10 9 8 7 6 7 7 8 9 9 9 8 8 6 8
9 9 9 9 10 10 10 10 11 11 10 11 11 11 11 11 11 11 11 11 11 11 10 10 10 11 11 10 9 8 7 6 6 6 6 4 6 10 11 11 10 9 8
9 9 8 9 9 10 10 11 11 11 11 11 11 11 11 11 11 11 11 11 11 11 11 10 10 11 10 9 8 8 7 7 7 7 5 5 6 10 11 11 10 9 8
10 10 9 9 9 10 10 10 11 11 11 11 11 11 11 11 11 12 12 12 12 12 11 11 11 10 10 9 8 8 7 7 8 7 5 6 5 10 11 10 9 9 9
9 10 8 9 9 9 10 10 11 11 11 11 11 11 11 11 12 12 12 12 12 12 11 11 11 11 10 9 8 7 7 7 7 5 6 5 5 9 10 10 9 9 9
8 10 9 9 9 10 10 10 10 11 11 11 11 10 10 11 11 11 11 12 12 12 11 11 11 10 10 8 7 7 7 7 4 5 5 5 6 10 10 9 9 8 8
8 9 9 10 10 10 10 10 10 10 10 10 10 9 9 10 10 10 11 11 11 11 11 11 10 9 9 8 7 7 7 6 6 7 5 5 9 10 10 9 9 9 8
7 8 7 7 8 10 10 10 10 10 9 9 8 8 8 8 9 9 10 10 10 10 10 10 9 8 8 7 6 6 6 6 4 4 6 5 9 10 9 9 9 9 9
6 6 5 5 6 6 7 8 9 8 7 7 6 6 6 6 8 8 9 9 9 9 9 8 8 7 6 5 5 5 5 4 3 4 4 5 10 10 9 9 9 9 9
5 4 5 4 5 5 5 7 6 6 5 5 4 4 4 3 3 4 8 8 8 8 7 6 5 4 4 3 3 4 4 2 4 4 4 9 10 10 9 9 9 9 9
5 4 4 4 4 4 4 4 3 3 2 2 2 2 1 2 3 5 6 6 6 6 5 3 2 2 1 1 1 2 2 4 4 4 5 10 9 9 9 9 9 9 10
5 4 4 4 4 4 3 3 1 1 1 1 2 3 2 2 2 3 2 2 2 2 2 1 1 1 1 1 2 3 4 4 4 4 4 8 8 8 9 9 9 9 9
5 4 4 4 4 4 3 2 2 2 1 1 1 3 2 2 1 2 1 1 1 1 2 2 2 3 4 4 4 4 5 4 4 3 4 9 9 9 9 9 9 9 9
5 5 4 4 4 4 3 2 3 2 2 2 2 2 3 2 1 2 2 2 2 2 2 2 3 4 5 5 5 5 5 5 4 4 3 8 8 8 8 8 8 8 8
5 5 4 4 4 4 3 2 2 2 2 2 2 2 3 2 2 2 2 2 2 2 2 2 3 3 3 4 4 4 4 4 3 3 3 4 7 7 7 7 7 6 6
6 5 4 4 4 4 3 3 2 2 2 2 2 2 2 2 2 2 2 2 2 2 2 2 3 2 2 3 3 3 3 3 3 3 2 2 3 5 6 7 7 6 6
6 5 5 3 3 4 3 3 2 2 2 2 2 1 1 2 2 2 2 1 2 2 2 2 2 2 2 2 2 2 2 2 2 2 2 2 2 2 4 5 5 5 6
6 6 5 4 3 3 3 2 2 2 2 2 2 1 1 2 3 3 2 1 2 2 2 2 2 2 2 2 1 1 1 1 1 2 2 2 2 2 2 2 4 5 5
5 5 6 5 3 4 2 2 2 2 1 2 2 1 2 2 3 3 1 2 2 2 2 2 2 2 1 1 2 2 1 0 1 1 1 2 2 2 2 2 1 2 5
4 5 5 5 4 4 2 2 1 1 1 1 1 1 2 2 2 2 1 1 2 1 1 1 1 1 1 1 1 2 2 1 1 1 1 1 2 1 1 2 1 1 2
4 4 5 5 4 4 3 2 2 2 1 2 1 1 1 1 1 2 1 1 1 1 2 1 1 1 1 1 0 1 2 2 3 1 1 1 1 1 1 2 2 2 2
3 3 3 4 4 4 4 2 2 1 1 1 1 0 0 1 2 2 1 1 1 1 1 1 1 1 1 2 1 1 0 1 2 2 1 1 1 1 1 1 2 2 2
3 3 3 3 4 4 4 3 3 2 2 2 2 1 1 1 1 1 0 1 1 1 1 0 1 1 1 1 2 1 1 1 1 1 2 1 1 1 1 1 1 2 2
2 2 2 3 3 3 3 2 2 2 2 1 2 2 2 1 1 1 0 1 1 1 0 1 1 1 1 0 1 1 2 2 1 1 1 2 2 1 0 0 1 1 1
3 2 2 3 3 3 3 3 3 2 2 2 2 2 1 1 1 1 1 0 1 1 1 1 1 1 1 1 1 1 1 1 1 1 1 2 1 2 1 1 0 1 1
Wind_Direction
86 85 69 64 65 66 65 64 64 63 63 61 62 63 61 63 63 62 60 62 66 67 69 69 68 67 65 65 67 68 69 73 74 70 68 63 57 59 68 68 70 67 69
97 92 74 67 68 66 66 67 66 65 63 63 64 65 66 67 65 62 62 63 66 70 72 72 69 68 66 66 65 64 64 66 67 67 68 66 63 59 61 71 71 69 66
98 95 81 69 68 67 70 70 68 66 66 67 70 70 69 68 66 64 62 63 65 68 72 73 70 69 70 68 64 59 55 51 50 58 61 68 63 60 62 72 73 68 63
95 92 82 74 71 70 74 73 71 69 69 70 72 71 71 69 67 65 62 64 66 67 69 71 71 70 67 63 57 51 45 38 44 53 59 61 59 63 61 61 64 64 62
92 91 85 79 76 74 76 76 75 73 71 72 73 73 72 70 69 67 64 64 66 67 68 69 69 66 65 60 53 44 40 35 51 54 61 62 57 64 64 60 58 61 61
101 99 94 86 84 82 81 80 77 75 73 74 76 74 73 70 68 68 66 66 66 65 66 68 68 65 63 56 47 37 29 31 54 63 60 59 58 63 64 61 59 59 57
107 110 109 99 93 90 87 85 81 78 76 75 75 76 75 72 68 66 67 66 65 63 62 65 64 62 60 54 44 32 30 29 68 75 72 64 62 64 64 59 58 59 56
108 114 118 115 107 100 95 90 87 84 81 78 74 75 77 74 71 69 69 67 65 64 63 62 60 58 58 54 43 32 28 24 63 77 77 71 69 66 65 63 60 58 55
101 107 122 133 122 112 106 101 96 91 87 85 81 81 83 81 78 75 73 69 67 65 64 64 61 57 53 50 43 33 26 16 41 63 74 70 70 68 67 62 59 57 55
100 104 111 124 127 129 122 112 109 103 97 95 92 85 90 92 89 83 79 71 68 67 67 66 63 58 51 45 39 26 13 7 58 67 71 73 70 69 65 62 59 58 57
100 101 107 106 113 118 118 114 121 115 104 106 104 91 101 94 97 92 86 85 77 72 69 68 65 61 54 36 28 15 4 49 71 69 66 74 74 70 65 60 59 59 58
105 98 96 103 103 109 106 116 124 116 123 118 124 122 103 102 90 88 92 86 77 72 65 60 47 32 31 8 12 11 29 56 67 74 74 75 71 69 63 58 58 59 57
107 95 88 90 94 97 101 113 103 105 121 105 95 103 85 78 84 89 93 78 59 68 50 28 339 324 7 47 43 51 48 55 61 62 71 76 70 66 63 60 59 58 56
109 102 87 88 87 88 90 96 95 85 78 71 64 75 70 67 63 84 85 79 55 38 28 10 3 18 27 38 48 51 53 57 63 69 68 75 71 66 63 61 59 57 56
121 112 96 85 86 85 86 87 93 88 65 67 47 59 74 72 51 65 72 60 47 39 34 16 17 29 23 25 32 41 47 59 60 70 73 75 73 68 61 58 54 52 52
130 117 105 92 86 87 85 73 73 79 74 68 59 51 63 73 61 58 55 52 44 39 36 30 26 40 28 30 31 34 34 52 66 83 92 77 73 68 59 57 55 55 53
130 122 113 110 101 93 89 80 78 74 83 79 71 50 51 69 75 71 62 48 38 34 28 34 27 38 39 36 29 28 29 43 55 68 89 94 73 62 63 58 54 55 52
129 126 119 120 113 106 98 90 86 78 76 78 77 68 57 65 75 75 67 49 51 39 30 40 42 33 32 31 18 14 26 46 51 61 80 100 101 79 62 66 59 56 52
138 136 135 131 124 111 101 102 93 88 84 81 64 51 41 53 67 72 59 49 57 47 27 29 39 33 22 18 358 3 31 41 43 49 46 73 88 102 98 81 71 60 47
137 141 141 138 137 122 113 106 93 74 76 89 84 58 45 54 61 72 61 53 61 57 27 33 35 18 16 353 357 8 338 168 83 64 42 50 64 86 109 109 99 55 56
147 147 141 145 150 133 126 120 124 125 107 85 83 68 60 58 55 69 46 54 62 70 53 37 48 12 339 352 24 347 334 19 80 81 60 46 52 48 81 107 124 105 72
154 151 153 152 151 139 137 147 147 143 145 125 101 66 75 81 74 82 66 48 70 65 38 18 37 12 330 352 27 8 355 347 357 46 59 44 38 31 37 49 60 89 114
140 149 153 151 140 138 135 130 130 128 126 110 126 129 80 66 62 64 63 47 64 82 65 9 42 26 312 317 13 71 91 275 310 315 7 53 36 35 10 12 39 54 90
145 149 164 158 146 142 141 146 156 147 155 165 166 155 135 114 101 86 64 78 76 71 89 332 35 342 2 327 329 336 314 155 149 312 322 347 42 44 353 8 32 39 67
116 145 159 149 141 138 139 165 175 161 173 163 147 143 160 161 128 103 56 66 58 40 52 23 26 3 358 346 325 325 329 333 294 149 295 312 333 327 326 18 68 62 75
85 81 133 145 143 149 162 172 169 179 173 155 153 159 170 154 160 138 82 43 73 45 46 23 4 26 340 345 338 339 339 341 326 335 286 288 295 291 301 345 91 174 176